Flag for Comoros Weather past 2 weeks in Mutsamudu, Comoros

Now
79 °F

Warm.


Feels Like: 82 °F
Forecast: 75 / 83 °F
Wind: 2 mph from North

Location: Dzaoudzi / Pamanzi Mayotte

Current Time: Mar 30, 2015 at 1:44:12 AM

Latest Report: Mar 30, 2015 at 1:00 AM


Visibility: N/A

Pressure: 29.86 "Hg

Humidity: 84%

Dew point: 73 °F

Location of MutsamuduLocation

Historic Weather in Mutsamudu — Graph

°F

Mutsamudu temperature yesterday

Maximum temperature yesterday: 90 °F (at 1:00 PM)
Minimum temperature yesterday: 79 °F (at 4:00 AM)
Average temperature yesterday: 83 °F

Past Weeks' High & Low Weather Summary

 TemperatureHumidityPressure
High90 °F (Mar 16, 11:34 AM)94% (Mar 16, 3:30 AM)30.01 "Hg (Mar 16, 3:30 AM)
Low75 °F (Mar 21, 8:04 AM)55% (Mar 28, 2:00 PM)29.83 "Hg (Mar 28, 2:30 PM)
Average84 °F78%29.91 "Hg
* Reported Midnight between Mar 14 and Mar 15 — Mar 30 12:30 AM, Mutsamudu, Weather by CustomWeather, © 2015

Note: Actual official high and low records may vary slightly from our data, if they occured in-between our weather recording intervals... More about our weather records

Advertising

Mutsamudu weather history for previous 24 hours

 ConditionsComfort  
Time TempWeatherWind HumidityBarometerVisibility
12:30 AM
Mon, Mar 30
79 °FWarm.2 mph89%29.86 "HgN/A
12:00 AM79 °FWarm.2 mph89%29.89 "HgN/A
11:30 PM
Sun, Mar 29
81 °FWarm.2 mph84%29.89 "HgN/A
11:00 PM81 °FWarm.2 mph84%29.89 "HgN/A
10:30 PM81 °FWarm.3 mph84%29.89 "HgN/A
10:00 PM81 °FWarm.3 mph84%29.89 "HgN/A
9:30 PM82 °FWarm.6 mph79%29.89 "HgN/A
9:00 PM82 °FWarm.2 mph79%29.89 "HgN/A
8:30 PM82 °FWarm.5 mph79%29.89 "HgN/A
8:00 PM82 °FOvercast.7 mph79%29.86 "HgN/A
7:30 PM84 °FMostly cloudy.8 mph74%29.86 "HgN/A
7:00 PM84 °FPartly cloudy.3 mph70%29.86 "HgN/A
6:30 PM84 °FPassing clouds.2 mph70%29.86 "HgN/A
6:00 PM84 °FPassing clouds.3 mph74%29.86 "HgN/A
5:30 PM86 °FPassing clouds.3 mph66%29.83 "HgN/A
5:00 PM88 °FPassing clouds.5 mph62%29.83 "HgN/A
4:30 PM88 °FScattered clouds.6 mph62%29.83 "HgN/A
3:30 PM88 °FScattered clouds.6 mph66%29.83 "HgN/A
2:00 PM88 °FPassing clouds.7 mph66%29.83 "HgN/A
1:30 PM88 °FPassing clouds.7 mph66%29.83 "HgN/A
1:00 PM90 °FPassing clouds.7 mph67%29.83 "HgN/A
12:30 PM88 °FPassing clouds.7 mph66%29.86 "HgN/A
11:34 AM88 °FPassing clouds.8 mph70%29.86 "HgN/A
11:00 AM88 °FPassing clouds.8 mph66%29.89 "HgN/A
10:30 AM88 °FPassing clouds.8 mph66%29.89 "HgN/A
10:00 AM88 °FPassing clouds.8 mph70%29.92 "HgN/A
9:45 AM88 °FPassing clouds.7 mph70%29.92 "HgN/A
9:05 AM88 °FScattered clouds.7 mph70%29.92 "HgN/A
8:34 AM86 °FScattered clouds.6 mph70%29.92 "HgN/A
8:00 AM84 °FScattered clouds.5 mph79%29.92 "HgN/A
7:00 AM81 °FPassing clouds.3 mph84%29.89 "HgN/A
6:36 AM79 °FPassing clouds.No wind89%29.89 "HgN/A
6:00 AM81 °FPassing clouds.3 mph84%29.89 "HgN/A
5:36 AM79 °FPassing clouds.3 mph89%29.86 "HgN/A
5:00 AM79 °FWarm.5 mph89%29.86 "HgN/A
4:30 AM79 °FWarm.3 mph89%29.86 "HgN/A
4:00 AM79 °FWarm.3 mph84%29.83 "HgN/A
3:30 AM81 °FWarm.5 mph79%29.83 "HgN/A
3:00 AM81 °FWarm.5 mph84%29.83 "HgN/A
2:30 AM81 °FWarm.6 mph79%29.83 "HgN/A
2:00 AM81 °FWarm.6 mph79%29.86 "HgN/A
1:30 AM81 °FWarm.6 mph84%29.86 "HgN/A
1:00 AM81 °FWarm.6 mph84%29.86 "HgN/A
Weather by CustomWeather, © 2015

See weather overviewHow to use our weather pages